Volver al catálogo

STARLINK-34048

ActivoComunicacionesVLEO
NORAD 63816·PAYLOAD·🇺🇸 United States

Lanzado May 4, 2025 desde Cape Canaveral Space Force Station

Loading…

Próximos Pases (próximas 24 horas)

TLE

ActualizadoSource: CelesTrak SupGP

Época: Sep 15, 2026, 02:15 UTC

1 63816C 25092N   26258.09423611 -.00049388  00000+0 -17892-2 0  2581
2 63816  43.0006 183.2141 0001356 275.1129 237.5944 15.27596494    18

Sigue STARLINK-34048 en tiempo real con AllMySat

Download on the App Store